Location: WHS+Essen
(51.3947°N, 6.9794°E)
Time: 20:36:10
(UTC+02:00)

ISS - Pass Details

Date: 23 May 2019
Orbit: 408 x 418 km, 51.6° (Epoch: 17 June)

Event Time Altitude Azimuth Distance (km) Brightness Sun altitude
Rises 01:49:26 0° 284° (WNW) 2,366 0.2 -18.0°
Reaches altitude 10° 01:51:34 10° 278° (W) 1,502 -0.9 -17.9°
Enters shadow 01:53:51 35° 251° (WSW) 703 -2.9 -17.9°
